sat.trackr.live / text

‹ back to catalog

STARLINK-11207 [DTC]

NORAD 60933 · 2024-155K

PAYLOAD ACTIVE UNKNOWN

§ Identity

Operator
Country
US
Launch date
2024-08-31
Launch site
AFWTR
Launch vehicle
Mass (kg)
RCS (m²)

Purposes: comms

External: N2YO · Heavens-Above · Gunter

§ Orbital elements

Epoch: 2026-05-25T04:55:49.780992Z

Period
91.74 min
Inclination
53.1576°
Eccentricity
0.0000899
Mean motion
15.69714777 rev/d
Perigee alt
359.1 km
Apogee alt
360.3 km
Semi-major
6,737.9 km
B*
2.4108e-5
RAAN
323.7895°
Arg perigee
55.2090°
Mean anomaly
304.9013°
Rev number
10,042

§ Raw data

STARLINK-11207 [DTC]1 60933U 24155K   26145.20543728  .00002334  00000+0  24108-4 0  99972 60933  53.1576 323.7895 0000899  55.2090 304.9013 15.69714777100425

JSON: /api/v1/satellites/60933 · /tle

For live sub-satellite position, see the globe view (requires WebGL).

§ Visibility from observer

Set your observer location to see the next 7 days of passes ≥ 10°. The values pass through the URL so the page stays shareable.

No JS? Fill the form by hand. The geolocation button needs JavaScript.